Other Public Products
Issued by NWS Charleston, SC

Current Version | Previous Version | Graphics & Text | Print | Product List | Glossary On
Versions: 1 2 3 4 5 6 7 8 9 10 11 12 13 14 15 16 17 18 19 20 21 22 23 24 25 26 27 28 29 30 31 32 33 34 35 36 37 38 39 40 41 42 43 44 45 46 47 48 49 50
000
FPUS82 KCHS 220641
OPUCHS

TEST...KCHS/KSAV Gateway Observations...TEST
National Weather Service Charleston SC
200 AM EDT FRI SEP 22 2017

NOTE: "fair" indicates few or no clouds below 12,000 feet with no
significant weather and/or obstructions to visibility.

SCZ050-WAZ558-NCZ071-TXZ119-213-PAZ071-DCZ001-FLZ074-172-MI076-
NYZ176-178-MAZ016-IL014-TNZ027-NJZ106-GAZ044-MD014-220700-

...Gateway Observations for Charleston International...

CITY           SKY/WX    TMP DP  RH WIND       PRES   REMARKS
Chas Airport   PTCLDY    70  67  90 CALM      30.02S
6HR MIN TEMP:  69; 6HR MAX TEMP:  76;

Seattle        MOCLDY    54  46  74 SE3       30.00S
6HR MIN TEMP:  53; 6HR MAX TEMP:  63;

Charlotte      CLEAR     72  66  81 E3        30.07S
6HR MIN TEMP:  72; 6HR MAX TEMP:  80;

Dallas DFW     CLEAR     79  71  76 S13       29.91F
6HR MIN TEMP:  79; 6HR MAX TEMP:  93;

Dallas Love    CLEAR     79  71  76 S14       29.92F
6HR MIN TEMP:  79; 6HR MAX TEMP:  93;

Philladelphia  CLOUDY    73  60  63 N8        30.02F
6HR MIN TEMP:  73; 6HR MAX TEMP:  79;

Wash National  CLOUDY    74  68  81 CALM      30.04F
6HR MIN TEMP:  73; 6HR MAX TEMP:  81;

Baltimore      MOCLDY    69  66  90 W3        30.03S
6HR MIN TEMP:  67; 6HR MAX TEMP:  80;

Miami          PTCLDY    82  77  84 CALM      29.90F HX  90
6HR MIN TEMP:  82; 6HR MAX TEMP:  84;

Detroit        PTCLDY    72  65  78 CALM      30.09R
6HR MIN TEMP:  72; 6HR MAX TEMP:  79;

Newark         CLOUDY    70  61  73 N8        30.02R
6HR MIN TEMP:  70; 6HR MAX TEMP:  76;

Laguardia      CLOUDY    71  52  50 N13       30.01R
6HR MIN TEMP:  71; 6HR MAX TEMP:  76;

J F K          CLOUDY    71  50  47 N18G24    30.01S
6HR MIN TEMP:  71; 6HR MAX TEMP:  76;

Boston Logan   CLOUDY    61  55  81 N24G37    30.02F
6HR MIN TEMP:  61; 6HR MAX TEMP:  67;

Ft. Lauderdale PTCLDY    82  77  84 NE5       29.89F HX  90
6HR MIN TEMP:  81; 6HR MAX TEMP:  83;

Chicago O`Hare MOCLDY    80  68  66 S7        30.02R
6HR MIN TEMP:  79; 6HR MAX TEMP:  88;

Chicago Midway MOCLDY    83  68  60 S7        30.02R
6HR MIN TEMP:  83; 6HR MAX TEMP:  90;

Houston Bush   MOCLDY    76  74  93 CALM      29.94F
6HR MIN TEMP:  75; 6HR MAX TEMP:  78;

Houston Hobby  PTCLDY    78  74  87 SE5       29.93F
6HR MIN TEMP:  78; 6HR MAX TEMP:  79;

Nashville      CLEAR     72  70  93 CALM      30.06S
6HR MIN TEMP:  71; 6HR MAX TEMP:  79;

Atlanta        PTCLDY    72  66  81 NE5       30.04S
6HR MIN TEMP:  72; 6HR MAX TEMP:  82;


$$

GAZ044-118-TXZ119-213-NCZ071-DCZ001-MDZ014-506-PAZ021-071-NJZ106-
NYZ176-178-MAZ106-OHZ011-021-055-MIZ076-KYZ091-ILZ014-INZ047-
MNZ060-ONZ431-220700-

...Gateway Observations for Savannah International...

CITY           SKY/WX    TMP DP  RH WIND       PRES   REMARKS
Savannah Arpt  CLEAR     73  72  96 CALM      30.02R
6HR MIN TEMP:  72; 6HR MAX TEMP:  80;

Atlanta        PTCLDY    72  66  81 NE5       30.04S
6HR MIN TEMP:  72; 6HR MAX TEMP:  82;

Charlotte      CLEAR     72  66  81 E3        30.07S
6HR MIN TEMP:  72; 6HR MAX TEMP:  80;

Dallas DFW     CLEAR     79  71  76 S13       29.91F
6HR MIN TEMP:  79; 6HR MAX TEMP:  93;

Houston Bush   MOCLDY    76  74  93 CALM      29.94F
6HR MIN TEMP:  75; 6HR MAX TEMP:  78;

Wash National  CLOUDY    74  68  81 CALM      30.04F
6HR MIN TEMP:  73; 6HR MAX TEMP:  81;

Wash Dulles    CLOUDY    65  64  97 CALM      30.06S
6HR MIN TEMP:  65; 6HR MAX TEMP:  75;

Baltimore      MOCLDY    69  66  90 W3        30.03S
6HR MIN TEMP:  67; 6HR MAX TEMP:  80;

Philadelphia   CLOUDY    73  60  63 N8        30.02F
6HR MIN TEMP:  73; 6HR MAX TEMP:  79;

Newark         CLOUDY    70  61  73 N8        30.02R
6HR MIN TEMP:  70; 6HR MAX TEMP:  76;

Laguardia      CLOUDY    71  52  50 N13       30.01R
6HR MIN TEMP:  71; 6HR MAX TEMP:  76;

J F K          CLOUDY    71  50  47 N18G24    30.01S
6HR MIN TEMP:  71; 6HR MAX TEMP:  76;

Boston         CLOUDY    61  55  81 N24G37    30.02F
6HR MIN TEMP:  61; 6HR MAX TEMP:  67;

Pittsburg      CLEAR     66  62  87 CALM      30.11S
6HR MIN TEMP:  65; 6HR MAX TEMP:  81;

Akron          CLEAR     70  61  73 E6        30.11S
6HR MIN TEMP:  70; 6HR MAX TEMP:  77;

Cleveland      PTCLDY    71  63  75 CALM      30.11S
6HR MIN TEMP:  70; 6HR MAX TEMP:  81;

Cincinnati     PTCLDY    74  69  85 S3        30.09R
6HR MIN TEMP:  72; 6HR MAX TEMP:  77;

Columbus       CLEAR     67  66  99 CALM      30.09R
Detroit        PTCLDY    72  65  78 CALM      30.09R
6HR MIN TEMP:  72; 6HR MAX TEMP:  79;

Chicago O`Hare MOCLDY    80  68  66 S7        30.02R
6HR MIN TEMP:  79; 6HR MAX TEMP:  88;

Minneapolis    PTCLDY    76  69  79 SE12      29.84S
6HR MIN TEMP:  75; 6HR MAX TEMP:  81;

Indianapolis   PTCLDY    75  68  78 S3        30.07S
6HR MIN TEMP:  75; 6HR MAX TEMP:  84;

Toronto Canada PTCLDY    68  61  77 NE3       30.12S

$$




USA.gov is the U.S. government's official web portal to all federal, state and local government web resources and services.